Flag for U.S.A. Weather past 2 weeks in Fall River, Massachusetts, U.S.A.

Now
64 °F

Light rain. Overcast.


Feels Like: 64 °F
Forecast: 60 / 72 °F
Wind: 5 mph from Northeast

Location: New Bedford Regional Airport

Current Time: Aug 22, 2014 at 7:52:05 AM

Latest Report: Aug 22, 2014 at 6:53 AM


Visibility: 10 mi

Pressure: 30.06 "Hg

Humidity: 97%

Dew point: 63 °F

Location of Fall RiverLocation

Historic Weather in Fall River — Graph

°F

Fall River temperature yesterday

Maximum temperature yesterday: 78 °F (at 12:53 PM)
Minimum temperature yesterday: 53 °F (at 12:53 AM)
Average temperature yesterday: 66 °F

Past Weeks' High & Low Weather Summary

 TemperatureHumidityPressure
High84 °F (Aug 10, 2:53 PM)100% (Aug 10, 2:53 AM)30.16 "Hg (Aug 10, 2:53 AM)
Low48 °F (Aug 19, 5:53 AM)35% (Aug 10, 2:53 PM)29.62 "Hg (Aug 13, 7:53 PM)
Average68 °F75%29.95 "Hg
* Reported Aug 7 5:53 AM — Aug 22 5:53 AM, Fall River, Weather by CustomWeather, © 2014

Note: Actual official high and low records may vary slightly from our data, if they occured in-between our weather recording intervals... More about our weather records

Advertising

Fall River weather history for previous 24 hours

 ConditionsComfort  
Time TempWeatherWind HumidityBarometerVisibility
5:53 AM
Aug 22
64 °FMostly cloudy.No wind94%30.05 "Hg10 mi
4:53 AM63 °FLight rain. Mostly cloudy.3 mph97%30.05 "Hg10 mi
3:53 AM63 °FOvercast.5 mph97%30.04 "Hg10 mi
2:53 AM63 °FOvercast.No wind93%30.05 "Hg10 mi
1:53 AM62 °FMostly cloudy.3 mph96%30.05 "Hg10 mi
12:53 AM61 °FPassing clouds.No wind97%30.06 "Hg10 mi
11:53 PM
Aug 21
64 °FClear.No wind94%30.06 "Hg10 mi
10:53 PM64 °FClear.3 mph94%30.06 "Hg10 mi
9:53 PM63 °FClear.6 mph93%30.06 "Hg10 mi
8:53 PM66 °FOvercast.5 mph87%30.06 "Hg10 mi
7:53 PM70 °FOvercast.6 mph76%30.06 "Hg10 mi
6:53 PM72 °FOvercast.5 mph71%30.06 "Hg10 mi
5:53 PM73 °FOvercast.7 mph66%30.05 "Hg10 mi
4:53 PM74 °FMostly cloudy.7 mph67%30.04 "Hg10 mi
3:53 PM75 °FPartly sunny.6 mph66%30.03 "Hg10 mi
2:53 PM78 °FPartly sunny.8 mph64%30.04 "Hg10 mi
1:53 PM77 °FScattered clouds.8 mph56%30.05 "Hg10 mi
12:53 PM78 °FScattered clouds.6 mph58%30.06 "Hg10 mi
11:53 AM77 °FMostly cloudy.3 mph62%30.07 "Hg10 mi
10:53 AM73 °FPartly sunny.7 mph71%30.07 "Hg10 mi
9:53 AM72 °FPassing clouds.5 mph76%30.07 "Hg10 mi
8:53 AM70 °FSunny.7 mph79%30.08 "Hg10 mi
7:53 AM64 °FPartly sunny.5 mph94%30.08 "Hg10 mi
Weather by CustomWeather, © 2014

See weather overviewHow to use our weather pages